Location: Tyler Bend Campground
(35.9875°N, 92.7606°W)
Time: 20:03:51
(UTC-06:00)

CZ-2C R/B - Visible Passes

Search period start: 23 January 2018 00:00
Search period end: 02 February 2018 00:00
Orbit: 667 x 786 km, 98.1° (Epoch: 22 January)

Date Brightness Start Highest point End Pass type
(mag) Time Alt. Az. Time Alt. Az. Time Alt. Az.
23 Jan 2.2 05:50:01 10° N 05:54:39 73° WNW 05:59:23 10° SSW visible
24 Jan 4.0 05:02:22 10° NNE 05:06:36 33° E 05:10:54 10° SSE visible
24 Jan 3.4 06:41:08 10° NNW 06:44:38 21° WNW 06:48:12 10° WSW visible
25 Jan 2.2 05:52:14 10° N 05:56:53 69° WNW 06:01:38 10° SSW visible
26 Jan 3.9 05:04:32 10° NNE 05:08:51 35° E 05:13:15 10° SSE visible
26 Jan 3.5 06:43:26 10° NNW 06:46:51 20° WNW 06:50:21 10° WSW visible
26 Jan 5.2 17:50:14 10° SSW 17:53:51 22° W 17:57:26 10° NW visible
27 Jan 5.6 04:19:26 10° ENE 04:20:33 11° E 04:21:40 10° ESE visible
27 Jan 2.2 05:54:27 10° N 05:59:07 64° WNW 06:03:53 10° SSW visible
28 Jan 3.7 05:06:42 10° NNE 05:11:06 38° E 05:15:36 10° SSE visible
28 Jan 3.6 06:45:44 10° NNW 06:49:04 20° WNW 06:52:28 10° WSW visible
29 Jan 5.5 04:21:09 10° ENE 04:22:49 12° E 04:24:30 10° ESE visible
29 Jan 2.3 05:56:42 10° N 06:01:21 61° WNW 06:06:09 10° SSW visible
30 Jan 3.6 05:08:53 10° NNE 05:13:22 41° E 05:17:57 10° S visible
31 Jan 5.4 04:23:00 10° ENE 04:25:06 13° E 04:27:12 10° ESE visible
31 Jan 2.4 05:58:56 10° N 06:03:36 57° WNW 06:08:23 10° SSW visible
01 Feb 3.5 05:11:04 10° NNE 05:15:38 43° E 05:20:18 10° S visible
